Regional Weather Roundup
Issued by NWS

Home | Current Version | Previous Version | Text Only | Print | Product List | Glossary Off
Versions: 1 2 3 4 5 6 7 8 9 10 11 12 13 14 15 16 17 18 19 20 21 22 23 24 25 26 27 28 29 30 31 32 33 34 35 36 37 38 39 40 41 42 43 44 45 46 47 48 49 50

036
ASUS45 KPSR 300910
RWRAZ

ARIZONA HOURLY REGIONAL WEATHER ROUNDUP
NATIONAL WEATHER SERVICE PHOENIX AZ
200 AM MST SUN APR 30 2017

NOTE: FAIR INDICATES FEW OR NO CLOUDS BELOW 12,000 FEET WITH NO
SIGNIFICANT WEATHER AND/OR OBSTRUCTIONS TO VISIBILITY.

AZZ001>003-036-301000-
NORTHWEST ARIZONA

CITY           SKY/WX    TMP DP  RH WIND       PRES   REMARKS
BULLHEAD CITY  CLEAR     68  16  13 N7        30.05S
KINGMAN        CLEAR     44  18  35 SE9       30.14F
$$

AZZ004>008-015-016-018-301000-
NORTH CENTRAL ARIZONA

CITY           SKY/WX    TMP DP  RH WIND       PRES   REMARKS
GRAND CANYON   CLEAR     25  12  58 CALM      30.21F HAZE
WILLIAMS       CLEAR     28  14  54 S7        30.21S WCI  21
PRESCOTT       CLEAR     44  17  33 W6        30.18S
FLAGSTAFF      CLEAR     30  12  47 NE5       30.19S WCI  25
PAYSON         CLEAR     46  12  25 N6        30.17S
PAGE           CLEAR     51  19  28 NW6       30.15S
$$

AZZ009>014-017-301000-
NORTHEAST ARIZONA

CITY           SKY/WX    TMP DP  RH WIND       PRES   REMARKS
WINSLOW        CLEAR     35  14  42 SW7       30.15F WCI  29
SAINT JOHNS    CLEAR     33  27  78 CALM      30.12F
WINDOW ROCK    CLEAR     35  19  52 N8        30.10F WCI  29
SHOW LOW       CLEAR     32  14  47 W3        30.17S
$$

AZZ540-542>544-546-548-301000-
GREATER PHOENIX AREA

CITY           SKY/WX    TMP DP  RH WIND       PRES   REMARKS
PHOENIX        CLEAR     65  24  21 E6        29.99R
BUCKEYE        CLEAR     64  12  13 N8        30.01S
LUKE AFB       CLEAR     63  25  23 N6        30.00S
DEER VALLEY    CLEAR     63  18  17 NE7       30.01S
SCOTTSDALE     CLEAR     63  24  22 NE5       30.02S
MESA-GATEWAY   CLEAR     57  21  24 E7        30.01S
$$

AZZ539-553-301000-
SOUTHWEST MARICOPA COUNTY AND PINAL COUNTY

CITY           SKY/WX    TMP DP  RH WIND       PRES   REMARKS
CASA GRANDE    CLEAR     54  20  26 NE7       30.01S
GILA BEND      FAIR      62  15  16 S5        30.00R
$$

AZZ503-504-507>509-301000-
SOUTHEAST ARIZONA

CITY           SKY/WX    TMP DP  RH WIND       PRES   REMARKS
TUCSON         CLEAR     54  15  21 SE8       30.09F
DAVIS-MONTHAN  CLEAR     51  15  23 SE7       30.08S
NOGALES        CLEAR     44  13  28 S3        30.12F
SIERRA VISTA   CLEAR     50  14  23 W9        30.14F
DOUGLAS        CLEAR     41  10  28 SW3       30.13R
SAFFORD        CLEAR     45  22  40 E6        30.07F
$$

AZZ532-301000-
SOUTHWEST ARIZONA

CITY           SKY/WX    TMP DP  RH WIND       PRES   REMARKS
YUMA           CLEAR     65  27  23 CALM      30.01S
$$

CAZ041-043-047-048-061-525>527-560>570-301000-
SOUTHERN CALIFORNIA

CITY           SKY/WX    TMP DP  RH WIND       PRES   REMARKS
DOWNTOWN L.A.  CLEAR     64  41  42 CALM      30.05S
L.A. AIRPORT   CLEAR     62  45  53 CALM      30.06R
SAN DIEGO      CLEAR     64  36  35 CALM      30.07F
BURBANK        CLEAR     61  22  22 CALM      30.06S
ONTARIO        CLEAR     59  28  30 CALM      30.08S
RIVERSIDE      CLEAR     60  31  33 NE6       30.08S
PALM SPRINGS   CLEAR     67  19  16 N10       30.06F
EL CENTRO NAS  CLEAR     57  17  21 W8        30.03S
IMPERIAL       CLEAR     60  26  27 W8        30.01S
BLYTHE         CLEAR     66  15  14 W6        30.02S
NEEDLES        CLEAR     63  14  15 CALM      30.05S
$$

NVZ020-UTZ003-301000-
SOUTHERN NEVADA-UTAH

CITY           SKY/WX    TMP DP  RH WIND       PRES   REMARKS
LAS VEGAS      CLEAR     64  14  14 N7        30.11F
SALT LAKE CITY CLEAR     41  30  65 SE7       30.19S
$$

NMZ009-TXZ055-301000-
NEW MEXICO-WEST TEXAS

CITY           SKY/WX    TMP DP  RH WIND       PRES   REMARKS
ALBUQUERQUE    CLOUDY    36  35  96 S5        30.07S WCI  32
EL PASO        PTCLDY    42  33  70 CALM      30.07S
$$


........................KEY........................
SKY/WX - SKY CONDITION/WEATHER
TMP    - TEMPERATURE IN FAHRENHEIT
DP     - DEW POINT IN FAHRENHEIT
RH     - RELATIVE HUMIDITY IN PERCENT
WIND   - DIRECTION AND SPEED IN MILES PER HOUR (MPH)
VRB    - VARIABLE WIND DIRECTION
PRES   - MEAN SEA LEVEL PRESSURE IN INCHES OF MERCURY
         F - FALLING PRESSURE   R - RISING PRESSURE
         S - STEADY PRESSURE
VSB    - VISIBILITY IN MILES
HX     - HEAT INDEX IN FAHRENHEIT
WCI    - WIND CHILL INDEX IN FAHRENHEIT
TC     - TEMPERATURE IN CELSIUS WHICH IS ALSO KNOWN AS
         TEMPERATURE IN CENTIGRADE
AFB    - AIR FORCE BASE
         LUKE AFB IS LUKE AIR FORCE BASE
         DAVIS-MONTHAN IS DAVIS-MONTHAN AIR FORCE BASE
NAS    - NAVAL AIR STATION
         EL CENTRO NAS IS EL CENTRO NAVAL AIR STATION
N/A    - NOT AVAILABLE





USA.gov is the U.S. government's official web portal to all federal, state and local government web resources and services.